Wind_Speed
48 46 46 45 44 44 42 37 34 32 32 31 29 29 26 26 28 30 29 29 30 30 40 43 35 38 42 44 51 57 65 63 70 77 85 91 97 110 107 95 74 38 18
43 40 51 48 48 50 51 46 42 38 37 35 32 31 30 31 31 33 31 30 26 27 32 30 32 34 42 44 47 55 58 59 65 71 80 86 94 106 107 91 69 37 16
54 54 46 46 48 47 53 51 47 43 42 43 40 39 35 35 35 34 34 31 30 25 27 29 32 38 43 45 48 49 54 55 60 68 73 83 92 96 108 82 67 41 24
59 61 60 53 55 49 46 51 52 47 47 47 44 44 44 40 38 37 34 34 32 32 29 27 32 40 41 39 47 45 51 52 58 62 65 79 83 91 101 88 68 46 30
48 59 64 63 63 61 59 57 56 55 56 56 55 51 47 46 45 46 45 42 36 37 34 35 34 34 36 41 45 46 49 48 51 54 63 73 75 82 90 99 68 59 38
38 40 40 44 48 58 67 71 70 66 65 62 62 54 52 52 51 47 38 38 34 35 37 38 34 28 32 40 44 42 44 45 45 49 55 64 70 76 84 88 74 71 50
34 36 37 38 41 42 42 47 56 61 65 65 67 67 62 55 53 51 44 42 38 35 36 38 40 30 27 35 42 42 41 40 40 43 50 55 58 68 73 79 80 65 68
40 38 37 38 39 39 39 40 43 45 52 58 63 64 68 65 60 57 55 49 47 42 36 33 35 34 31 35 37 33 38 36 37 39 44 50 53 60 64 68 74 74 65
47 46 45 45 44 43 42 41 41 43 44 44 48 51 59 64 68 64 59 50 49 50 45 42 41 42 41 37 40 36 31 34 34 33 35 46 41 51 54 60 62 67 65
53 53 52 51 50 50 49 48 48 46 44 43 43 44 46 48 59 63 59 56 53 56 54 50 42 42 43 48 48 37 31 31 32 24 30 37 32 44 48 51 49 55 53
56 55 55 55 56 56 55 56 54 52 50 50 49 48 44 45 46 54 62 59 61 60 60 57 50 47 49 44 38 34 29 27 31 22 25 24 22 39 35 41 38 43 43
64 62 60 60 59 59 60 60 59 58 58 56 56 56 54 53 51 47 49 55 65 65 65 60 58 55 55 47 40 35 32 32 25 22 18 20 16 25 28 30 29 34 34
66 66 66 66 66 67 66 65 62 62 62 61 60 60 61 59 59 58 58 55 56 57 60 66 65 63 56 54 51 46 38 32 30 21 20 20 20 18 19 23 19 22 26
70 69 69 71 71 69 70 69 70 70 69 66 66 66 67 66 66 66 67 65 63 60 59 60 66 62 58 59 55 51 49 39 42 34 26 22 21 17 14 13 11 14 15
73 73 73 76 78 77 76 76 76 75 75 76 76 76 75 73 72 73 75 75 74 72 68 63 63 62 70 72 72 63 48 38 43 34 29 28 27 26 18 11 5 5 6
79 79 79 84 83 83 84 84 83 82 82 82 82 80 82 83 79 78 81 85 85 81 75 70 65 64 62 64 65 66 65 47 45 41 37 34 29 23 24 20 12 12 8
86 90 87 79 77 85 90 87 81 80 81 83 84 80 81 86 93 95 92 82 78 77 76 74 70 66 63 60 61 65 64 60 50 47 46 34 29 26 26 25 22 17 20
69 75 84 85 88 87 83 81 84 87 89 85 85 85 89 96 97 85 72 63 65 65 65 67 70 68 68 61 59 63 65 64 60 55 49 42 42 35 30 33 37 26 22
87 77 73 68 72 78 87 91 95 95 92 93 93 87 86 71 62 58 55 51 51 55 57 58 61 65 52 62 58 64 61 56 56 56 52 48 43 38 37 35 37 31 31
81 76 74 72 72 77 80 84 81 81 77 72 66 58 50 44 46 43 39 39 43 47 50 51 55 57 55 59 57 63 65 58 57 52 52 47 43 43 37 38 41 36 32
88 80 71 75 82 77 70 67 64 53 49 49 44 45 43 46 43 44 41 36 36 40 45 47 48 55 60 61 57 60 67 68 63 60 57 51 47 48 42 41 43 46 36
80 67 65 63 59 56 56 51 44 47 49 46 46 44 48 48 45 42 43 42 39 38 41 45 47 52 57 60 69 63 69 68 71 67 59 64 60 56 52 52 52 51 48
67 66 64 57 53 51 50 46 45 48 53 50 49 56 53 42 38 38 40 44 44 44 42 45 47 51 56 60 62 65 65 65 67 66 68 66 60 63 63 64 58 55 51
74 75 78 65 56 58 49 49 50 52 53 57 60 60 47 45 46 46 43 45 45 49 48 51 50 51 56 58 66 68 68 69 71 72 69 68 67 62 60 58 57 57 59
69 75 68 68 58 53 55 59 59 61 64 64 55 52 52 54 58 56 54 50 47 48 53 56 55 58 56 61 66 76 78 72 75 71 71 69 68 67 67 67 67 63 65
69 65 60 58 57 57 56 58 58 55 54 53 55 58 58 61 60 59 61 63 64 66 66 67 67 66 64 65 67 72 82 77 81 83 75 73 73 74 73 70 68 63 63
Wind_Direction
253 253 257 260 264 265 265 267 265 270 271 274 274 275 282 288 294 302 315 327 341 343 337 326 333 348 344 352 356 350 347 356 353 352 354 359 1 358 1 2 360 7 6
249 260 253 256 262 267 271 268 269 269 276 279 274 265 273 285 288 294 302 315 322 333 349 336 343 335 334 343 345 352 344 353 351 356 355 358 0 0 5 5 6 16 38
249 255 256 259 258 261 264 264 266 270 275 280 283 270 270 280 285 290 296 300 301 305 339 318 319 329 335 340 341 352 348 352 350 358 357 0 0 4 6 12 12 24 57
250 253 256 255 254 258 263 258 259 266 269 268 269 273 272 279 283 285 290 298 288 294 293 303 305 321 327 333 338 342 346 352 350 357 357 3 360 4 10 18 20 34 65
257 256 257 256 252 252 251 254 260 266 270 271 271 269 275 275 276 283 285 286 284 286 295 293 298 321 315 320 330 343 343 352 353 4 355 2 0 9 10 15 31 43 66
263 264 263 262 261 259 258 258 261 263 265 264 266 268 269 272 276 277 282 285 279 279 292 299 298 314 321 314 316 335 342 346 357 4 357 2 1 11 16 21 34 50 58
262 264 266 267 267 266 265 265 260 257 259 260 261 263 263 269 270 271 274 284 274 285 286 292 288 299 308 308 314 330 339 346 355 356 355 0 1 9 23 24 38 50 66
259 260 261 264 266 269 271 270 269 269 265 262 261 263 265 265 266 264 265 273 271 276 288 291 290 289 302 306 317 321 337 342 350 356 355 359 357 2 25 31 39 45 61
258 258 260 260 262 265 267 269 269 271 272 270 269 269 267 267 267 265 266 267 261 268 269 275 279 288 290 300 307 316 324 331 341 348 352 1 357 357 25 37 43 50 57
259 259 260 262 264 265 265 266 267 268 270 271 273 274 271 275 265 265 269 259 255 264 267 264 268 277 279 287 299 306 315 321 342 345 346 355 356 359 14 31 43 53 56
262 263 264 264 265 267 267 268 269 270 270 272 273 274 271 270 274 267 263 262 260 262 259 263 264 263 270 279 288 298 312 314 320 332 337 351 8 355 4 17 42 50 56
264 265 265 266 267 268 269 270 271 272 272 271 272 273 274 273 270 268 271 269 266 265 260 261 262 263 269 269 275 285 295 295 303 313 312 325 341 356 9 17 35 47 48
267 267 267 267 267 268 268 269 270 273 274 273 272 272 272 272 272 272 269 269 266 270 268 262 265 265 260 267 269 275 278 279 284 292 308 319 325 331 335 24 41 45 53
267 268 270 270 269 269 269 271 272 274 273 273 273 274 274 276 276 274 274 273 270 266 265 263 260 255 257 266 268 272 274 276 275 276 276 291 312 310 332 354 18 36 55
265 266 267 271 271 272 272 273 273 274 275 276 276 275 275 275 275 278 277 274 272 272 270 267 259 256 250 259 264 265 264 267 269 262 261 274 284 291 266 296 343 66 70
265 266 269 270 272 274 275 275 275 276 278 277 276 278 276 272 272 275 283 279 273 269 267 264 261 258 254 254 254 257 255 260 248 250 256 268 273 280 260 264 256 261 282
264 263 265 267 275 279 274 274 276 279 280 279 276 276 279 282 281 284 286 278 271 266 262 259 256 254 252 249 249 247 248 250 243 248 252 250 256 270 270 260 262 255 254
267 266 272 276 278 276 276 273 274 276 285 281 278 278 283 289 291 288 282 274 265 259 254 249 245 246 248 247 243 241 244 250 247 249 251 242 250 260 273 270 263 260 259
273 272 267 267 271 275 278 281 282 283 281 279 280 287 287 284 283 282 279 272 260 252 249 246 241 240 232 243 239 235 236 240 246 247 243 239 254 259 269 261 256 251 261
271 276 276 278 280 279 280 279 277 280 282 280 280 276 272 288 286 278 275 273 262 249 246 243 239 236 222 228 237 232 226 229 235 233 239 245 254 251 255 253 255 248 252
269 274 276 278 280 277 274 277 279 274 269 275 277 278 286 299 286 273 272 269 264 256 246 242 239 234 230 223 218 228 230 233 236 234 233 236 243 240 240 242 249 253 255
269 272 281 289 277 274 275 272 265 265 270 277 279 283 289 284 270 268 264 265 264 257 251 244 239 233 231 227 220 216 228 233 236 236 238 243 242 240 241 245 248 254 256
267 268 282 290 286 276 270 265 264 263 265 274 276 284 289 265 265 268 264 261 258 254 249 245 243 236 229 226 222 212 216 223 234 236 231 235 242 246 248 249 250 256 259
271 275 281 284 284 280 268 263 264 266 266 272 279 286 277 273 279 284 277 275 258 250 250 245 240 238 235 230 220 216 212 217 222 233 236 237 234 240 237 241 238 246 252
276 278 280 281 275 267 263 263 265 270 273 280 281 280 281 283 284 282 279 273 267 255 249 248 246 241 236 233 226 217 221 219 217 222 228 235 236 235 234 233 235 241 248
274 278 272 267 259 263 265 267 270 272 274 278 279 282 282 284 283 282 283 279 274 269 262 248 242 245 239 233 230 226 216 221 217 219 223 230 236 237 238 237 241 246 246
Height
11005 11008 11009 11011 11013 11015 11016 11017 11016 11015 11015 11015 11014 11013 11011 11009 11005 11003 11000 10998 10996 10990 10984 10975 10968 10960 10954 10948 10939 10929 10917 10906 10893 10877 10858 10837 10814 10786 10753 10728 10702 10684 10672
10994 10997 10999 11001 11003 11003 11005 11007 11008 11007 11008 11009 11008 11007 11006 11004 11001 10998 10997 10995 10994 10991 10985 10976 10970 10961 10954 10948 10940 10933 10922 10910 10897 10882 10864 10843 10822 10795 10760 10729 10702 10681 10670
10983 10985 10987 10991 10993 10992 10993 10995 10996 10997 11000 11000 11000 11000 11000 10997 10995 10991 10991 10992 10990 10990 10982 10976 10969 10964 10956 10949 10942 10935 10924 10914 10901 10889 10871 10851 10832 10806 10775 10739 10708 10685 10673
10970 10971 10973 10978 10980 10981 10982 10983 10983 10984 10987 10988 10988 10988 10990 10989 10989 10988 10987 10986 10985 10983 10981 10975 10970 10966 10957 10950 10943 10936 10927 10917 10906 10895 10878 10862 10843 10822 10795 10758 10724 10698 10687
10956 10958 10960 10965 10966 10968 10969 10972 10974 10974 10976 10977 10978 10979 10981 10981 10980 10980 10980 10981 10979 10976 10974 10973 10969 10963 10958 10952 10944 10938 10931 10920 10911 10902 10887 10873 10855 10840 10818 10788 10753 10725 10711
10944 10945 10947 10948 10950 10953 10956 10957 10959 10961 10963 10964 10965 10968 10969 10970 10970 10971 10970 10972 10971 10969 10968 10966 10964 10959 10956 10952 10946 10941 10933 10923 10916 10909 10896 10885 10870 10856 10840 10819 10788 10761 10745
10936 10935 10936 10937 10938 10938 10940 10940 10941 10944 10947 10949 10952 10954 10957 10959 10959 10961 10961 10961 10962 10962 10961 10959 10958 10956 10954 10951 10945 10941 10935 10926 10921 10913 10904 10895 10881 10874 10860 10847 10829 10808 10790
10926 10928 10928 10928 10929 10929 10929 10930 10929 10930 10933 10936 10938 10939 10940 10944 10946 10949 10951 10953 10952 10954 10954 10953 10953 10951 10950 10947 10944 10942 10936 10930 10922 10917 10910 10902 10889 10885 10875 10860 10849 10839 10827
10916 10918 10920 10920 10920 10920 10920 10920 10920 10921 10923 10925 10924 10925 10928 10927 10930 10933 10937 10941 10942 10943 10943 10944 10946 10946 10946 10943 10941 10941 10937 10932 10927 10921 10915 10909 10898 10891 10887 10879 10865 10855 10853
10903 10905 10906 10907 10908 10909 10909 10909 10909 10911 10913 10913 10913 10912 10915 10914 10914 10916 10920 10926 10929 10929 10931 10934 10934 10936 10939 10939 10938 10938 10937 10932 10930 10925 10922 10915 10906 10899 10894 10891 10885 10878 10873
10886 10889 10892 10893 10894 10894 10895 10895 10897 10899 10901 10901 10900 10900 10902 10902 10901 10902 10904 10908 10912 10916 10917 10922 10924 10925 10928 10932 10932 10932 10933 10930 10929 10927 10925 10920 10915 10906 10901 10900 10897 10891 10889
10869 10872 10874 10876 10878 10877 10879 10880 10882 10885 10886 10888 10887 10886 10887 10888 10888 10889 10888 10890 10894 10899 10902 10908 10911 10913 10917 10921 10924 10925 10928 10928 10927 10925 10924 10921 10917 10916 10909 10904 10903 10900 10897
10854 10856 10858 10859 10860 10862 10862 10864 10866 10868 10869 10871 10871 10871 10870 10872 10873 10874 10874 10876 10877 10880 10884 10891 10896 10899 10902 10907 10914 10916 10919 10922 10921 10922 10920 10920 10919 10916 10913 10911 10908 10906 10903
10835 10838 10839 10840 10840 10844 10844 10847 10848 10849 10849 10850 10852 10852 10852 10853 10852 10855 10855 10857 10858 10862 10868 10873 10879 10885 10887 10892 10899 10905 10908 10910 10912 10914 10914 10916 10915 10915 10912 10911 10912 10908 10907
10816 10820 10820 10819 10819 10821 10824 10826 10828 10829 10830 10830 10830 10830 10830 10830 10832 10833 10836 10837 10838 10840 10846 10852 10859 10865 10873 10875 10880 10889 10896 10900 10900 10903 10904 10905 10911 10911 10911 10910 10910 10910 10909
10795 10798 10799 10797 10798 10801 10801 10802 10806 10808 10807 10807 10808 10808 10806 10806 10805 10805 10809 10810 10811 10815 10822 10827 10836 10843 10852 10855 10863 10870 10878 10886 10889 10892 10893 10896 10900 10900 10902 10904 10906 10907 10907
10770 10775 10777 10777 10778 10778 10778 10782 10783 10786 10784 10783 10784 10784 10782 10778 10777 10777 10777 10777 10778 10784 10793 10802 10811 10821 10827 10837 10842 10850 10858 10867 10873 10877 10881 10884 10889 10892 10894 10896 10897 10898 10899
10752 10755 10758 10756 10753 10755 10756 10758 10761 10762 10763 10763 10760 10761 10759 10752 10749 10745 10745 10746 10748 10754 10762 10772 10784 10795 10803 10815 10824 10830 10837 10845 10856 10861 10865 10870 10874 10879 10882 10885 10886 10888 10889
10733 10729 10730 10732 10736 10737 10735 10735 10736 10737 10739 10739 10738 10738 10736 10730 10725 10724 10722 10723 10726 10731 10738 10748 10759 10770 10787 10790 10803 10811 10819 10827 10835 10842 10849 10853 10858 10863 10868 10871 10874 10878 10877
10704 10705 10710 10714 10715 10714 10714 10713 10713 10715 10716 10715 10717 10716 10717 10714 10710 10708 10709 10709 10710 10715 10720 10728 10740 10750 10766 10773 10782 10791 10800 10808 10816 10824 10831 10837 10841 10846 10853 10857 10862 10865 10867
10689 10692 10694 10696 10691 10689 10690 10692 10694 10696 10697 10697 10698 10699 10699 10699 10697 10696 10697 10699 10699 10701 10706 10712 10721 10731 10741 10754 10765 10774 10781 10789 10796 10805 10813 10820 10825 10831 10837 10842 10845 10849 10853
10677 10677 10676 10673 10670 10673 10675 10677 10679 10680 10682 10682 10683 10684 10686 10685 10684 10685 10686 10686 10688 10689 10691 10696 10702 10712 10721 10730 10743 10754 10762 10770 10778 10786 10793 10800 10808 10815 10819 10825 10830 10835 10839
10659 10659 10657 10657 10657 10659 10662 10663 10665 10665 10667 10666 10667 10669 10669 10668 10669 10671 10671 10672 10673 10676 10679 10682 10685 10692 10701 10710 10719 10733 10745 10752 10758 10767 10772 10781 10787 10793 10800 10806 10811 10815 10818
10638 10640 10639 10643 10642 10643 10646 10648 10649 10650 10651 10651 10652 10653 10652 10652 10652 10652 10653 10654 10655 10659 10662 10666 10670 10675 10681 10691 10701 10712 10722 10733 10739 10744 10752 10758 10767 10775 10782 10788 10792 10796 10800
10623 10625 10625 10628 10629 10629 10630 10632 10633 10634 10634 10634 10633 10634 10634 10634 10632 10631 10632 10632 10634 10637 10640 10644 10649 10655 10661 10669 10678 10689 10700 10709 10720 10727 10732 10738 10747 10755 10762 10769 10774 10780 10783
10609 10608 10608 10609 10612 10613 10614 10616 10616 10617 10617 10617 10617 10617 10615 10613 10611 10609 10608 10608 10609 10610 10612 10616 10621 10627 10635 10645 10653 10662 10674 10685 10697 10708 10713 10718 10724 10732 10739 10748 10755 10761 10766